This is the latest recevied weather packets stored in our database for station/object W5ADC. If no packets are shown the sender has not sent any weather packets the latest 10 day(s).
| Time | Temp. | Humidity | Pressure | Rain* | Wind** | Luminosity | Snow |
|---|---|---|---|---|---|---|---|
| 1788487404 | 28.89° C | 72% | 1008.8 hPa | 0 mm | - | 0 W/m² | - |
| 1788487102 | 28.89° C | 72% | 1008.8 hPa | 0 mm | - | 0 W/m² | - |
| 1788486798 | 28.89° C | 71% | 1008.9 hPa | 0 mm | - | 0 W/m² | - |
| 1788486496 | 28.89° C | 71% | 1008.6 hPa | 0 mm | - | 0 W/m² | - |
| 1788486191 | 29.44° C | 70% | 1008.6 hPa | 0 mm | - | 0 W/m² | - |
| 1788485887 | 29.44° C | 70% | 1008.5 hPa | 0 mm | - | 0 W/m² | - |
| 1788485583 | 29.44° C | 69% | 1008.5 hPa | 0 mm | - | 0 W/m² | - |
| 1788485279 | 29.44° C | 69% | 1008.4 hPa | 0 mm | - | 0 W/m² | - |
| 1788484973 | 29.44° C | 68% | 1008.2 hPa | 0 mm | - | 0 W/m² | - |
| 1788484672 | 29.44° C | 68% | 1008.2 hPa | 0 mm | - | 0 W/m² | - |
| 1788484367 | 30° C | 67% | 1008.1 hPa | 0 mm | - | 0 W/m² | - |
| 1788484062 | 30° C | 67% | 1008.3 hPa | 0 mm | - | 0 W/m² | - |
| 1788483759 | 30° C | 67% | 1008.1 hPa | 0 mm | - | 0 W/m² | - |
| 1788483453 | 30° C | 66% | 1008.1 hPa | 0 mm | - | 1 W/m² | - |
| 1788483149 | 30° C | 65% | 1008.1 hPa | 0 mm | - | 2 W/m² | - |
| 1788482844 | 30° C | 64% | 1008.5 hPa | 0 mm | - | 4 W/m² | - |
| 1788482540 | 30° C | 64% | 1008.4 hPa | 0 mm | - | 7 W/m² | - |
| 1788482234 | 30° C | 64% | 1008.3 hPa | 0 mm | - | 10 W/m² | - |
| 1788481931 | 30.56° C | 65% | 1008.4 hPa | 0 mm | - | 13 W/m² | - |
| 1788481626 | 30° C | 65% | 1008.3 hPa | 0 mm | - | 16 W/m² | - |
| 1788481322 | 30.56° C | 65% | 1008.4 hPa | 0 mm | - | 19 W/m² | - |
| 1788481017 | 30.56° C | 66% | 1008.2 hPa | 0 mm | - | 24 W/m² | - |
| 1788480716 | 30.56° C | 66% | 1008.1 hPa | 0 mm | - | 31 W/m² | - |
| 1788480411 | 30.56° C | 66% | 1007.9 hPa | 0 mm | - | 35 W/m² | - |
| 1788480106 | 30.56° C | 67% | 1008 hPa | 0 mm | - | 39 W/m² | - |
* Rain latest hour (hover to see other rain measurements)
** Current wind speed in m/s (hover to see current wind gust speed)